This is the latest recevied weather packets stored in our database for station/object WA1TYB-13. If no packets are shown the sender has not sent any weather packets the latest 10 day(s).
| Time | Temp. | Humidity | Pressure | Rain* | Wind** | Luminosity | Snow |
|---|---|---|---|---|---|---|---|
| 1777738646 | 13.33° C | 46% | 1021.6 hPa | 0 mm | - | 452 W/m² | - |
| 1777738342 | 13.33° C | 45% | 1021.7 hPa | 0 mm | - | 425 W/m² | - |
| 1777738041 | 13.33° C | 45% | 1022 hPa | 0 mm | - | 465 W/m² | - |
| 1777737739 | 12.78° C | 45% | 1022 hPa | 0 mm | - | 457 W/m² | - |
| 1777737437 | 12.78° C | 47% | 1021.8 hPa | 0 mm | - | 431 W/m² | - |
| 1777737134 | 12.78° C | 46% | 1021.8 hPa | 0 mm | - | 408 W/m² | - |
| 1777736829 | 12.22° C | 45% | 1022.3 hPa | 0 mm | - | 423 W/m² | - |
| 1777736212 | 12.22° C | 46% | 1022.1 hPa | 0 mm | - | 438 W/m² | - |
| 1777735908 | 11.67° C | 46% | 1022.2 hPa | 0 mm | - | 437 W/m² | - |
| 1777735606 | 11.67° C | 47% | 1022.3 hPa | 0 mm | - | 331 W/m² | - |
| 1777735303 | 11.11° C | 50% | 1022.2 hPa | 0 mm | - | 318 W/m² | - |
| 1777735001 | 10.56° C | 49% | 1022.3 hPa | 0 mm | - | 264 W/m² | - |
| 1777734698 | 10° C | 51% | 1022.4 hPa | 0 mm | - | 275 W/m² | - |
| 1777734395 | 10° C | 51% | 1022.4 hPa | 0 mm | - | 241 W/m² | - |
| 1777734091 | 10° C | 50% | 1022.5 hPa | 0 mm | - | 235 W/m² | - |
| 1777733788 | 9.44° C | 50% | 1022.1 hPa | 0 mm | - | 197 W/m² | - |
| 1777733485 | 8.89° C | 54% | 1022.2 hPa | 0 mm | - | 202 W/m² | - |
| 1777733181 | 8.89° C | 56% | 1022.2 hPa | 0 mm | - | 220 W/m² | - |
| 1777732878 | 8.33° C | 59% | 1022.2 hPa | 0 mm | - | 200 W/m² | - |
| 1777732574 | 7.78° C | 61% | 1022.5 hPa | 0 mm | - | 212 W/m² | - |
| 1777732272 | 7.22° C | 61% | 1022.4 hPa | 0 mm | - | 170 W/m² | - |
| 1777731969 | 6.67° C | 63% | 1022.4 hPa | 0 mm | - | 144 W/m² | - |
| 1777731665 | 6.67° C | 64% | 1022.1 hPa | 0 mm | - | 145 W/m² | - |
| 1777731363 | 6.11° C | 65% | 1022.1 hPa | 0 mm | - | 135 W/m² | - |
| 1777731061 | 5.56° C | 67% | 1022.2 hPa | 0 mm | - | 130 W/m² | - |
* Rain latest hour (hover to see other rain measurements)
** Current wind speed in m/s (hover to see current wind gust speed)